Regional Weather Roundup
Issued by NWS

Home | Current Version | Previous Version | Graphics & Text | Print | Product List | Glossary On
Versions: 1 2 3 4 5 6 7 8 9 10 11 12 13 14 15 16 17 18 19 20 21 22 23 24 25 26 27 28 29 30 31 32 33 34 35 36 37 38 39 40 41 42 43 44 45 46 47 48 49 50
000
ASUS43 KLSX 260057
RWRMO

WEATHER SUMMARY FOR MISSOURI
NATIONAL WEATHER SERVICE SPRINGFIELD MO
800 PM CDT THU AUG 25 2016

NOTE: "FAIR" INDICATES FEW OR NO CLOUDS BELOW 12,000 FEET WITH NO
       SIGNIFICANT WEATHER AND/OR OBSTRUCTIONS TO VISIBILITY.
       CURRENT SKY AND/OR WEATHER CONDITIONS ARE NOT AVAILABLE FOR
       CHILLICOTHE AND FARMINGTON.

MOZ001>031-035>038-043-044-053-054-260200-
...NORTHERN AND WESTERN MISSOURI...

CITY           SKY/WX    TMP DP  RH WIND       PRES   REMARKS
KANSAS CTY INT CLOUDY    75  66  73 NE13      30.07R
LEE`S SUMMIT   CLOUDY    77  71  82 NE13      30.06R
ST JOSEPH      PTCLDY    72  66  81 N6        30.08R

$$
MOZ066>068-077>081-088>096-101>105-260200-
...SOUTHWEST MISSOURI...

CITY           SKY/WX    TMP DP  RH WIND       PRES   REMARKS
SPRINGFIELD    CLOUDY    78  60  53 NE17G25   30.06R
JOPLIN         TSTM      75  70  84 SE8       30.04R
BRANSON        CLOUDY    81  72  74 S6        30.07R

$$
MOZ032>034-039>042-045>050-055>058-069>072-260200-
...CENTRAL MISSOURI...

CITY           SKY/WX    TMP DP  RH WIND       PRES   REMARKS
COLUMBIA       NOT AVBL
JEFFERSON CITY CLOUDY    80  68  66 SW7       30.02R
ROLLA          CLOUDY    77  74  90 CALM      30.03S
SEDALIA        CLOUDY    80  74  81 N6        30.04R

$$
MOZ051-052-059>065-260200-
...EAST CENTRAL MISSOURI...

CITY           SKY/WX    TMP DP  RH WIND       PRES   REMARKS
ST LOUIS INTL  CLOUDY    89  70  53 SW3       30.02S HX  94

$$
MOZ072>076-082>087-097>100-106>115-260200-
...SOUTH CENTRAL AND SOUTHEAST MISSOURI...

CITY           SKY/WX    TMP DP  RH WIND       PRES   REMARKS
CAPE GIRARDEAU PTCLDY    79  74  84 S5        30.04R
POPLAR BLUFF   CLOUDY    81  77  88 CALM      30.03S
WEST PLAINS    CLOUDY    81  70  69 CALM      30.09R

$$



USA.gov is the U.S. government's official web portal to all federal, state and local government web resources and services.